This demonstration page uses our WeatherBlox Daily Observations layout. Learn more.

Left ArrowRight Arrow

Hourly Observations for October 17, 2021

Temp ( °F °C ) Dew Point ( °F °C ) Humidity (%) Winds ( mph kmh ) Pressure ( in mb ) Visibility ( mi km ) Precip ( " mm )
12:53 am 00:53 Clear 45 7.2 34 1.1 66 66 WSW 3 6 30.24 1024 10 16 N/A
1:53 am 01:53 Clear 46 7.8 33 0.6 61 61 SW 5 7 30.23 1024 10 16 N/A
2:53 am 02:53 Clear 44 6.7 33 0.6 65 65 SW 5 7 30.23 1024 10 16 N/A
3:53 am 03:53 Clear 44 6.7 33 0.6 65 65 N N/A 30.23 1024 10 16 N/A
4:53 am 04:53 Clear 41 5 33 0.6 73 73 SSW 3 6 30.22 1024 10 16 N/A
5:53 am 05:53 Clear 40 4.4 33 0.6 77 77 SW 3 6 30.22 1023 10 16 N/A
6:53 am 06:53 Clear 42 5.6 33 0.6 71 71 SW 3 6 30.22 1023 10 16 N/A
7:53 am 07:53 Sunny 42 5.6 33 0.6 71 71 SW 5 7 30.23 1024 10 16 N/A
8:53 am 08:53 Sunny 46 7.8 35 1.7 66 66 SW 5 7 30.23 1024 10 16 N/A
9:53 am 09:53 Sunny 54 12.2 36 2.2 51 51 SSW 8 13 30.22 1024 10 16 N/A
10:53 am 10:53 Sunny 60 15.6 37 2.8 42 42 SSW 10 17 30.22 1023 10 16 N/A
11:53 am 11:53 Sunny 68 20 37 2.8 32 32 SSW 7 11 30.19 1022 10 16 N/A
12:53 pm 12:53 Sunny 72 22.2 33 0.6 24 24 SSW 12 19 30.16 1021 10 16 N/A
1:53 pm 13:53 Sunny 74 23.3 33 0.6 22 22 SSW 8 13 30.12 1020 10 16 N/A
2:53 pm 14:53 Sunny 74 23.3 33 0.6 22 22 SSW 12 19 30.10 1019 10 16 N/A
3:53 pm 15:53 Sunny 74 23.3 33 0.6 22 22 SW 10 17 30.08 1019 10 16 N/A
4:53 pm 16:53 Sunny 74 23.3 34 1.1 23 23 S 8 13 30.06 1018 10 16 N/A
5:53 pm 17:53 Sunny 72 22.2 36 2.2 27 27 S 8 13 30.05 1018 10 16 N/A
6:53 pm 18:53 Clear 66 18.9 36 2.2 33 33 SSE 5 7 30.05 1018 10 16 N/A
7:53 pm 19:53 Clear 63 17.2 37 2.8 38 38 SSE 5 7 30.05 1018 10 16 N/A
8:53 pm 20:53 Clear 61 16.1 37 2.8 41 41 SSE 6 9 30.04 1017 10 16 N/A
9:53 pm 21:53 Clear 59 15 37 2.8 44 44 SSE 8 13 30.04 1017 10 16 N/A
10:53 pm 22:53 Clear 57 13.9 38 3.3 49 49 SSE 7 11 30.03 1017 10 16 N/A
11:53 pm 23:53 Clear 55 12.8 39 3.9 55 55 SSE 8 13 30.01 1016 10 16 N/A

Powered by AerisWeather